Sussex, Wisconsin, United States (53089)
Lat: 43.13N, Lon: 88.22W
Wx Zone: WIZ065
Local Info
Past Weather Observations for Today

NOTE: This archive is for the closest National Weather Service station to Sussex. Information may differ from the station used for current weather conditions.

Time Weather Temperature Dewpoint Humidity Pressure Winds Precip Visibility
20:35
Overcast
Light Rain
48°F / 9°C 30°F / -1°C 50% 29.74 in
(1007 mb)
SE 9.2 mph
(SE 15 kph)
- 10SM
20:15
Overcast
50°F / 10°C 28°F / -2°C 43% 29.71 in
(1006 mb)
SE 13.8 mph
(SE 22 kph)
- 10SM
19:45
Overcast
50°F / 10°C 28°F / -2°C 43% 29.71 in
(1006 mb)
ESE 16.1 mph
(ESE 26 kph)
- 10SM
18:45
Overcast
50°F / 10°C 30°F / -1°C 47% 29.74 in
(1007 mb)
ESE 16.1 mph
(ESE 26 kph)
- 10SM
17:45
Overcast
50°F / 10°C 30°F / -1°C 47% 29.74 in
(1007 mb)
ESE 16.1 mph
(ESE 26 kph)
- 10SM
16:45
Overcast
52°F / 11°C 30°F / -1°C 44% 29.77 in
(1008 mb)
ESE 16.1 mph
(ESE 26 kph)
- 10SM
15:45
Overcast
52°F / 11°C 30°F / -1°C 44% 29.77 in
(1008 mb)
ESE 16.1 mph
(ESE 26 kph)
- 10SM
14:45
Overcast
52°F / 11°C 30°F / -1°C 44% 29.8 in
(1009 mb)
ESE 16.1 mph
(ESE 26 kph)
- 10SM
13:45
Overcast
54°F / 12°C 30°F / -1°C 41% 29.86 in
(1011 mb)
SE 11.5 mph
(SE 19 kph)
- 10SM
12:45
Overcast
52°F / 11°C 34°F / 1°C 50% 29.83 in
(1010 mb)
SE 21.9 mph
(SE 35 kph)
- 10SM
11:45
Overcast
52°F / 11°C 34°F / 1°C 50% 29.89 in
(1012 mb)
SE 24.2 mph
(SE 39 kph)
- 10SM
10:45
Overcast
48°F / 9°C 36°F / 2°C 62% 29.92 in
(1013 mb)
S 19.6 mph
(S 32 kph)
- 10SM
09:45
Overcast
46°F / 8°C 36°F / 2°C 66% 29.98 in
(1015 mb)
E 11.5 mph
(E 19 kph)
- 10SM
08:45
Overcast
45°F / 7°C 34°F / 1°C 66% 29.98 in
(1015 mb)
E 10.4 mph
(E 17 kph)
- 10SM
07:45
Overcast
39°F / 4°C 34°F / 1°C 81% 30.01 in
(1016 mb)
E 10.4 mph
(E 17 kph)
- 10SM
06:45
Overcast
37°F / 3°C 32°F / 0°C 81% 30.01 in
(1016 mb)
E 10.4 mph
(E 17 kph)
- 10SM
05:45
Overcast
36°F / 2°C 34°F / 1°C 93% 30.04 in
(1017 mb)
E 9.2 mph
(E 15 kph)
- 10SM
04:45
Overcast
Light Rain
34°F / 1°C 30°F / -1°C 87% 30.04 in
(1017 mb)
E 9.2 mph
(E 15 kph)
- 5SM
04:35
Overcast
Light Rain
34°F / 1°C 30°F / -1°C 87% 30.06 in
(1018 mb)
ESE 8.1 mph
(ESE 13 kph)
0.04 in
(1.02 mm)
5SM
04:15
Overcast
Rain
34°F / 1°C 30°F / -1°C 87% 30.06 in
(1018 mb)
E 8.1 mph
(E 13 kph)
0.02 in
(0.51 mm)
3SM
03:55
Overcast
Light Rain
34°F / 1°C 27°F / -3°C 75% 30.06 in
(1018 mb)
E 5.8 mph
(E 9 kph)
- 10SM
03:35
Overcast
34°F / 1°C 28°F / -2°C 81% 30.06 in
(1018 mb)
ENE 5.8 mph
(ENE 9 kph)
- 10SM
03:15
Overcast
34°F / 1°C 27°F / -3°C 75% 30.09 in
(1019 mb)
ENE 4.6 mph
(ENE 7 kph)
- 10SM
02:55
Overcast
Rain
34°F / 1°C 28°F / -2°C 81% 30.09 in
(1019 mb)
Calm - 10SM
02:35
Overcast
34°F / 1°C 27°F / -3°C 75% 30.09 in
(1019 mb)
Calm - 10SM
02:15
Overcast
34°F / 1°C 27°F / -3°C 75% 30.12 in
(1020 mb)
Calm - 10SM
01:55
Overcast
34°F / 1°C 27°F / -3°C 75% 30.12 in
(1020 mb)
Calm - 10SM
01:35
Overcast
Light Snow
34°F / 1°C 27°F / -3°C 75% 30.12 in
(1020 mb)
Calm - 10SM
01:15
Overcast
Light Snow
34°F / 1°C 27°F / -3°C 75% 30.12 in
(1020 mb)
Calm - 5SM
00:55
Overcast
Light Rain
34°F / 1°C 27°F / -3°C 75% 30.12 in
(1020 mb)
Calm - 10SM
00:35
Overcast
Rain
36°F / 2°C 25°F / -4°C 65% 30.09 in
(1019 mb)
Calm - 10SM
00:15
Overcast
Drizzle
36°F / 2°C 21°F / -6°C 56% 30.09 in
(1019 mb)
Calm - 10SM
Time Weather Temperature Dewpoint Humidity Pressure Winds Precip Visibility


Weather for websites

WeatherForYou.com, LLC is not responsible for any damages or problems caused by this service. Current weather conditions are obtained from the closest station including government and personal stations which may have varying degrees of accuracy. Weather forecasts are derived from the NOAA NDFD. Like all things, this site belongs to Jesus Christ... He just trusts me to maintain it. If you have any questions or comments email webmaster@weatherforyou.com

Copyright © 2014, WeatherForYou.com LLC. All rights reserved.